Location: Northcutt
(34.7304°N, 84.4305°W)
Time: 09:48:52
(UTC+00:00)

A-11 Canister half - Pass Details

Date: 06 October 2022
Orbit: 1524 x 1685 km, 47.3° (Epoch: 30 November)

Event Time Altitude Azimuth Distance (km) Brightness Sun altitude
Rises 17:58:06 0° 206° (SSW) 4,698 12.2 49.2°
Reaches altitude 10° 18:01:22 10° 199° (SSW) 3,702 11.9 49.1°
Maximum altitude 18:09:56 43° 132° (SE) 2,036 10.5 48.6°
Drops below altitude 10° 18:18:28 10° 65° (ENE) 3,695 10.8 48.1°
Sets 18:21:42 0° 59° (ENE) 4,688 11.2 47.8°
